This is the latest recevied weather packets stored in our database for station/object IZ7EXI-13. If no packets are shown the sender has not sent any weather packets the latest 10 day(s).
| Time | Temp. | Humidity | Pressure | Rain* | Wind** | Luminosity | Snow |
|---|---|---|---|---|---|---|---|
| 1777197046 | 22.22° C | 48% | 1020.1 hPa | - | - | - | - |
| 1777196146 | 22.22° C | 51% | 1020 hPa | - | - | - | - |
| 1777195246 | 21.67° C | 51% | 1020 hPa | - | - | - | - |
| 1777194345 | 22.22° C | 49% | 1019.9 hPa | - | - | - | - |
| 1777193445 | 22.78° C | 49% | 1019.9 hPa | - | - | - | - |
| 1777192545 | 22.78° C | 37% | 1019.8 hPa | - | - | - | - |
| 1777191645 | 22.22° C | 37% | 1019.8 hPa | - | - | - | - |
| 1777190744 | 22.22° C | 40% | 1019.8 hPa | - | - | - | - |
| 1777189844 | 21.67° C | 40% | 1019.7 hPa | - | - | - | - |
| 1777188976 | 21.11° C | 42% | 1019.6 hPa | - | - | - | - |
| 1777188944 | 21.11° C | 42% | 1019.6 hPa | - | - | - | - |
| 1777188043 | 20.56° C | 42% | 1019.6 hPa | - | - | - | - |
| 1777187143 | 20° C | 45% | 1019.5 hPa | - | - | - | - |
| 1777186243 | 19.44° C | 47% | 1019.4 hPa | - | - | - | - |
| 1777185343 | 18.89° C | 49% | 1019.4 hPa | - | - | - | - |
| 1777184442 | 18.33° C | 53% | 1019.4 hPa | - | - | - | - |
| 1777183542 | 17.78° C | 55% | 1019.3 hPa | - | - | - | - |
| 1777182642 | 16.67° C | 57% | 1019.3 hPa | - | - | - | - |
| 1777181742 | 15.56° C | 57% | 1019.2 hPa | - | - | - | - |
| 1777180841 | 15° C | 59% | 1019.1 hPa | - | - | - | - |
| 1777179941 | 15° C | 59% | 1019 hPa | - | - | - | - |
| 1777179041 | 14.44° C | 59% | 1018.9 hPa | - | - | - | - |
| 1777178141 | 14.44° C | 60% | 1018.8 hPa | - | - | - | - |
| 1777177290 | 14.44° C | 60% | 1018.7 hPa | - | - | - | - |
| 1777177241 | 14.44° C | 60% | 1018.7 hPa | - | - | - | - |
* Rain since midnight (hover to see other rain measurements)
** Current wind speed in m/s (hover to see current wind gust speed)